Vorticity
nan nan nan nan nan nan nan nan nan nan nan nan nan nan nan nan nan nan nan nan nan nan nan nan nan nan nan nan nan nan nan nan nan nan nan nan nan nan nan nan nan nan nan nan nan nan nan nan nan
nan 9 8 6 6 5 9 7 5 1 4 5 -2 -1 1 5 10 10 15 8 6 4 5 5 6 5 5 6 5 6 6 6 6 6 5 5 5 5 5 5 5 5 5 4 3 3 3 4 nan
nan 9 4 10 5 6 10 7 8 -3 3 15 -3 0 6 4 7 8 11 5 4 5 6 8 5 5 5 5 5 5 5 5 5 5 5 5 4 4 4 4 4 4 4 4 4 5 5 4 nan
nan 6 6 11 7 8 5 14 11 -1 4 20 6 3 9 7 8 9 10 4 4 5 6 6 5 5 4 5 5 6 6 6 5 5 4 4 4 4 3 4 5 5 5 5 4 4 5 6 nan
nan 6 7 5 6 8 6 6 1 22 23 5 10 6 6 6 8 12 7 2 4 5 6 5 6 5 6 4 5 5 5 5 5 5 5 5 4 4 5 5 5 5 5 5 5 5 5 5 nan
nan 6 4 4 11 3 7 7 1 9 23 7 11 6 3 9 9 12 6 6 4 5 6 7 5 5 6 4 4 3 4 4 4 4 3 3 4 5 5 6 5 5 4 5 5 6 6 7 nan
nan 5 3 2 10 8 14 5 2 13 4 -0 6 2 5 8 8 9 9 11 6 5 6 6 5 4 3 3 4 5 4 4 3 3 7 9 11 8 6 7 5 4 5 5 6 6 7 7 nan
nan 4 5 9 7 11 6 3 7 5 11 16 4 3 8 7 2 5 7 8 9 11 9 6 6 5 3 6 4 5 5 5 7 2 2 14 16 15 19 10 5 5 6 7 7 6 7 7 nan
nan 7 8 6 3 14 9 1 9 4 12 10 12 13 8 7 8 3 3 4 6 8 8 9 10 10 7 8 6 5 6 3 3 3 6 14 9 9 13 14 12 6 7 9 9 9 9 9 nan
nan 4 6 3 7 15 7 11 13 4 9 13 11 5 7 10 12 6 5 5 7 5 7 9 7 9 14 10 8 5 4 4 2 5 6 7 6 5 5 6 10 11 13 11 13 12 12 17 nan
nan 3 3 4 12 22 10 9 9 11 2 2 4 3 7 11 6 6 6 6 8 6 4 6 8 8 11 10 8 8 8 7 4 4 7 8 8 7 7 8 5 7 11 12 9 12 10 9 nan
nan 7 6 7 7 17 15 -1 6 10 3 4 8 9 5 4 7 5 6 6 4 7 7 5 8 9 8 9 8 8 7 9 8 5 6 8 7 6 7 7 7 10 6 6 7 6 6 6 nan
nan 10 7 8 12 14 10 5 14 3 3 10 6 5 5 5 5 8 7 5 6 5 6 6 7 8 7 8 8 7 7 8 8 7 6 8 7 7 7 7 9 8 7 7 6 7 8 7 nan
nan 11 4 8 12 6 12 8 9 11 7 8 6 6 7 8 5 5 6 6 6 7 6 5 6 7 8 8 9 7 7 8 9 8 6 7 8 8 7 7 9 8 7 6 8 9 8 7 nan
nan 11 10 8 11 9 3 -1 14 18 13 3 5 7 7 7 10 7 5 6 4 6 9 9 6 6 7 8 6 7 7 8 9 7 5 7 8 8 8 9 8 7 6 7 10 10 7 6 nan
nan 9 10 10 10 8 1 13 12 6 5 6 6 5 8 7 7 7 9 7 6 6 6 8 8 7 7 8 10 9 8 8 8 7 5 6 7 8 9 10 9 8 8 10 9 8 8 8 nan
nan 9 4 11 10 9 5 15 12 6 6 5 5 5 4 5 4 7 9 8 8 7 6 6 6 8 7 9 10 9 10 9 9 7 7 6 7 9 10 9 8 9 11 10 8 8 7 7 nan
nan 7 6 10 11 10 8 14 11 5 5 5 3 7 5 5 6 7 6 6 7 7 7 6 6 7 8 8 7 7 7 8 9 9 9 8 8 8 9 7 8 9 9 8 9 8 9 9 nan
nan 6 5 14 21 10 8 14 13 5 3 7 6 6 6 6 7 6 5 5 6 7 7 6 7 8 9 8 8 8 7 9 8 7 8 9 8 7 8 8 7 8 8 8 11 9 9 7 nan
nan 5 7 18 11 5 13 9 9 4 10 11 6 5 8 5 7 6 5 5 6 7 6 7 6 7 9 11 9 8 9 11 10 5 4 6 7 8 7 9 9 9 9 9 9 10 12 8 nan
nan 9 11 12 2 4 7 5 9 7 9 8 10 11 10 7 5 4 5 5 6 6 7 8 7 6 8 10 10 11 10 8 6 8 7 6 7 7 8 8 9 11 10 9 7 8 10 11 nan
nan 9 8 8 13 12 4 9 6 10 8 8 7 11 8 6 6 7 6 5 7 7 6 6 7 8 9 8 10 11 11 8 7 8 8 7 6 8 8 8 8 10 8 9 10 9 9 7 nan
nan 7 13 8 8 9 6 13 13 7 3 12 17 20 8 6 7 7 6 8 6 7 7 6 6 6 9 8 10 9 10 9 9 7 7 8 9 8 7 8 9 10 11 7 9 9 11 11 nan
nan 8 9 15 8 6 12 6 12 13 13 19 9 1 12 7 6 7 8 7 6 6 7 8 7 8 8 8 9 9 9 9 8 8 9 9 8 7 7 9 9 8 10 11 9 9 10 10 nan
nan 10 9 10 12 7 9 8 12 17 12 4 8 10 12 9 7 9 8 6 7 7 7 8 7 9 8 7 7 9 8 7 7 7 7 8 9 7 7 9 11 11 8 10 9 9 9 10 nan
nan 8 7 6 4 8 8 11 17 10 -3 11 14 13 11 10 13 10 7 6 8 7 8 9 8 9 8 7 7 9 7 6 6 7 8 9 10 8 8 10 12 8 8 9 9 7 7 9 nan
nan 13 3 6 10 10 6 5 13 17 12 10 12 14 10 4 10 9 6 6 8 8 8 9 8 8 8 7 7 7 6 7 6 10 12 9 10 10 10 12 10 6 8 10 10 8 8 8 nan
nan 7 6 13 14 9 11 7 11 9 16 21 19 7 4 6 12 9 5 9 8 8 8 9 10 9 9 8 7 7 7 7 9 10 10 8 8 10 8 8 11 11 7 8 11 11 9 10 nan
nan 8 11 15 10 11 9 8 11 15 15 18 18 11 6 9 10 7 9 10 8 7 7 7 8 9 8 8 8 7 10 10 10 8 8 8 7 7 8 9 12 11 7 8 10 10 9 12 nan
nan nan nan nan nan nan nan nan nan nan nan nan nan nan nan nan nan nan nan nan nan nan nan nan nan nan nan nan nan nan nan nan nan nan nan nan nan nan nan nan nan nan nan nan nan nan nan nan nan
CAPE
0 0 0 0 8 3 1 77 29 222 99 950 819 651 740 636 604 258 661 541 877 577 422 871 1468 1440 936 960 1089 1312 1523 1493 1468 1416 1323 1293 1238 1224 1244 1130 1047 990 782 285 171 104 64 35 17
0 0 0 0 2 35 3 2 17 48 121 1175 1304 982 850 865 860 978 510 1124 939 584 472 881 1423 1362 1055 1111 1351 1461 1453 1426 1424 1397 1234 1073 1186 1099 1044 1017 1073 1035 685 399 358 343 281 213 167
0 0 0 0 5 4 21 0 0 21 57 773 1123 1311 931 555 789 707 831 1439 1098 717 706 796 1562 1339 907 922 1175 1426 1434 1409 1389 1251 1164 1043 1043 1005 897 781 732 692 795 858 897 863 823 697 602
0 0 0 0 17 0 10 0 49 27 66 821 1016 998 829 719 575 474 818 1324 986 765 1126 1640 1763 1590 1366 941 1007 1199 1150 1106 1031 920 774 815 630 491 485 525 501 513 519 566 662 775 1116 1108 967
0 0 0 0 34 19 82 111 4 122 51 874 839 783 518 476 283 204 665 979 867 769 1065 1298 1790 1741 1764 1337 1278 1562 1357 1102 874 502 436 396 479 469 472 478 424 466 503 531 552 633 1126 1226 1041
0 0 0 0 0 145 133 204 209 101 837 1121 1004 775 555 424 107 7 108 702 895 740 875 1110 1676 1795 1793 1600 1143 1075 968 874 828 691 620 741 947 1057 1040 840 651 682 843 874 862 982 1293 1515 1421
0 0 0 0 13 52 120 207 69 266 662 646 712 725 675 112 0 0 0 416 323 505 548 997 1231 1405 1363 1333 1135 1137 1139 1110 909 456 419 556 590 870 1322 1269 1136 979 923 691 721 889 1119 1470 1702
0 0 0 0 0 171 103 46 34 6 363 734 636 744 298 10 0 4 653 558 585 571 419 814 984 762 390 606 1343 1415 1306 1082 596 407 722 622 1330 1114 1060 1326 1330 903 710 717 838 884 1008 1273 1410
0 0 0 0 0 263 17 30 10 1 1178 1268 862 497 209 91 1 557 403 384 763 798 825 690 627 461 245 471 1027 1390 1253 1106 556 123 291 83 77 56 89 661 882 615 846 1032 1122 1159 1267 1360 1465
0 0 0 0 0 215 27 59 100 607 975 1030 753 496 378 234 617 502 393 447 403 487 396 334 440 476 622 1185 797 698 901 293 36 0 0 0 25 61 63 237 823 965 1268 1487 1309 1498 1355 1345 661
0 0 0 0 0 30 67 240 727 1080 1269 1001 737 562 574 555 749 675 630 599 389 311 270 281 234 251 172 153 196 140 92 76 0 0 0 0 0 0 0 0 1 0 25 0 0 0 0 0 16
0 0 0 0 0 4 190 59 46 270 732 943 838 753 575 536 771 655 614 576 289 296 167 200 192 105 63 39 0 0 0 0 0 0 0 0 0 0 0 0 0 0 0 0 0 0 0 0 0
0 0 0 0 0 76 482 103 0 3 349 815 951 760 567 570 605 633 635 302 175 165 111 49 60 34 1 0 0 0 0 0 0 0 0 0 0 0 0 0 0 0 0 0 0 0 0 0 0
0 0 0 0 0 97 568 321 945 307 91 996 806 656 572 778 681 297 197 145 55 66 85 24 0 0 0 0 0 0 0 0 0 0 0 0 0 0 0 0 0 0 0 0 0 0 0 0 0
0 0 0 0 0 0 775 882 998 696 867 990 653 574 555 517 385 220 142 33 10 0 6 10 0 0 0 0 0 0 0 0 0 0 0 0 0 0 0 0 0 0 0 0 0 0 0 0 0
0 0 0 0 0 0 57 790 943 738 770 616 652 663 349 167 76 90 30 6 0 0 0 0 0 0 0 0 0 0 0 0 0 0 0 0 0 0 0 0 0 0 0 0 0 0 0 0 0
0 0 0 0 0 0 0 475 872 668 702 683 627 580 59 0 0 0 0 0 0 0 0 0 0 0 0 0 0 0 0 0 0 0 0 0 0 0 0 0 0 0 0 0 0 0 0 0 0
0 0 0 0 0 0 0 742 887 748 732 738 631 278 0 0 0 0 0 0 0 0 0 0 0 0 0 0 0 0 0 0 0 0 0 0 0 0 0 0 0 0 0 0 2 0 0 0 0
0 0 0 0 0 0 0 617 891 848 850 730 595 134 0 0 0 0 0 0 0 0 0 0 0 0 0 0 0 0 0 0 0 0 0 0 0 0 0 0 1 0 5 21 37 0 0 0 0
0 0 0 26 20 16 4 544 800 773 639 620 471 134 0 0 0 0 0 0 0 0 0 0 0 0 0 0 0 0 0 0 0 0 0 0 0 0 0 11 5 0 22 8 0 0 1 11 8
0 0 0 101 78 54 82 624 826 645 592 512 401 163 0 0 0 0 0 0 0 0 0 0 0 0 0 0 0 0 0 0 0 0 0 0 0 0 18 18 10 19 10 24 28 15 15 1 0
0 0 0 0 138 83 32 40 702 152 160 192 635 94 0 0 0 0 0 0 0 0 0 0 0 0 0 0 0 0 0 0 0 0 0 0 0 5 25 17 16 24 20 12 35 1 0 0 0
0 0 0 0 58 33 7 2 2 65 70 239 659 457 0 0 0 0 0 0 0 0 0 0 0 0 0 0 0 0 0 0 0 0 0 1 2 14 11 15 24 23 14 20 1 3 0 0 0
0 0 0 0 15 0 22 13 0 313 372 182 23 602 0 0 0 0 0 0 0 0 0 0 0 0 0 0 0 0 0 0 0 0 0 0 0 12 14 21 12 6 12 0 0 16 3 2 0
0 0 0 0 0 0 6 0 140 108 3 10 109 257 5 0 0 0 0 0 0 0 0 0 0 0 0 0 0 0 0 0 0 0 0 0 0 3 5 10 24 5 0 1 0 0 0 0 0
0 0 0 0 4 1 2 0 161 118 0 0 127 17 21 0 0 0 0 0 0 0 0 0 0 0 0 0 0 0 0 0 0 0 0 0 0 8 24 27 24 1 0 0 0 0 0 0 6
0 0 0 15 8 0 0 66 4 67 95 0 2 50 25 1 0 0 0 0 0 0 0 0 0 0 0 0 0 0 0 0 0 0 0 0 0 9 11 2 8 14 3 1 11 0 10 16 7
0 0 0 0 0 0 10 11 4 1 2 16 0 103 45 0 0 0 0 0 0 0 0 0 0 0 0 0 0 0 0 0 0 0 0 0 0 0 0 0 0 15 0 8 6 29 2 1 6
0 1 0 26 3 5 26 1 0 0 0 221 98 163 95 92 0 0 0 0 0 0 0 0 0 0 0 0 0 0 0 0 0 0 0 0 0 0 0 0 3 0 0 0 0 0 14 12 7
0 0 18 9 87 48 22 1 0 4 28 1 413 289 76 0 0 0 0 0 0 0 0 0 0 0 0 0 0 0 0 0 0 0 0 0 0 0 0 0 0 0 0 0 0 0 3 5 7